FW4613 Weather Reports


Display with metric or nautical units.
time (UTC)temp
F
wind
direction
speed
MPH
gust
MPH
rain 1hr
in
rain 24hr
in
rain mn
in
humidity
%
barometer
mb
20260504151018 65 49 4.0 17.0 0.00 0.00 0.00 45 1015.0
20260504150541 65 62 4.0 10.0 0.00 0.00 0.00 46 1015.0
20260504141018 62 58 1.0 11.0 0.00 0.00 0.00 57 1015.1
20260504140548 61 32 1.0 12.0 0.00 0.00 0.00 58 1015.1
20260504130510 59 116 3.0 8.0 0.00 0.00 0.00 62 1015.6
20260504120107 53 61 0.0 3.0 0.00 0.00 0.00 68 1015.8
20260504110558 49 60 0.0 0.0 0.00 0.00 0.00 69 1015.8
20260504100539 36 60 0.0 0.0 0.00 0.00 0.00 89 1015.6
20260504081509 39 60 0.0 0.0 0.00 0.00 0.00 83 1015.7
20260504081034 39 60 0.0 0.0 0.00 0.00 0.00 83 1015.7
20260504080552 39 60 0.0 0.0 0.00 0.00 0.00 83 1015.7
20260504050512 42 60 0.0 0.0 0.00 0.00 0.00 75 1015.6
20260504045513 42 60 0.0 0.0 0.00 0.00 0.00 76 1015.6
20260504045035 42 60 0.0 0.0 0.00 0.00 0.00 76 1015.6
20260504044552 42 60 0.0 0.0 0.00 0.00 0.00 75 1015.5
20260504044038 42 60 0.0 0.0 0.00 0.00 0.00 74 1015.6
20260504043600 42 60 0.0 0.0 0.00 0.00 0.00 73 1015.5
20260504043034 43 60 0.0 0.0 0.00 0.00 0.00 71 1015.5
20260504042554 43 60 0.0 0.0 0.00 0.00 0.00 73 1015.6
20260504042033 43 60 0.0 1.0 0.00 0.00 0.00 71 1015.4
20260504041506 43 60 0.0 1.0 0.00 0.00 0.00 71 1015.3
20260504041048 43 60 0.0 0.0 0.00 0.00 0.00 72 1015.3
20260504040525 43 60 0.0 0.0 0.00 0.00 0.00 71 1015.2
20260504040017 43 60 0.0 0.0 0.00 0.00 0.00 70 1015.2
20260504035540 44 60 0.0 0.0 0.00 0.00 0.00 71 1015.2
20260504035030 44 60 0.0 0.0 0.00 0.00 0.00 69 1015.1
20260504034509 44 60 0.0 0.0 0.00 0.00 0.00 68 1015.0
20260504034053 44 60 0.0 0.0 0.00 0.00 0.00 68 1015.0
20260504033543 44 60 0.0 0.0 0.00 0.00 0.00 68 1015.0
20260504033018 44 60 0.0 0.0 0.00 0.00 0.00 67 1015.0
20260504032540 44 60 0.0 0.0 0.00 0.00 0.00 67 1014.9
20260504032100 44 60 0.0 0.0 0.00 0.00 0.00 68 1015.0
20260504031521 45 60 0.0 0.0 0.00 0.00 0.00 65 1014.9
20260504031059 45 60 0.0 0.0 0.00 0.00 0.00 66 1015.0
20260504030513 45 60 0.0 0.0 0.00 0.00 0.00 65 1014.9
20260504030041 45 60 0.0 0.0 0.00 0.00 0.00 65 1014.9
20260504025551 46 60 0.0 0.0 0.00 0.00 0.00 64 1015.0
20260504025038 46 60 0.0 0.0 0.00 0.00 0.00 63 1015.0
20260504024601 47 60 0.0 0.0 0.00 0.00 0.00 64 1015.0
20260504024502 47 60 0.0 0.0 0.00 0.00 0.00 64 1015.0
20260504024024 48 60 0.0 0.0 0.00 0.00 0.00 60 1015.1
20260504023558 48 60 0.0 0.0 0.00 0.00 0.00 58 1015.1
20260504023019 49 60 0.0 0.0 0.00 0.00 0.00 58 1015.1
20260504022538 49 60 0.0 2.0 0.00 0.00 0.00 57 1015.1
20260504022016 49 60 0.0 2.0 0.00 0.00 0.00 57 1015.1
20260504021550 48 69 0.0 1.0 0.00 0.00 0.00 58 1015.1
20260504021009 47 44 0.0 0.0 0.00 0.00 0.00 59 1015.1
20260504020529 48 44 0.0 0.0 0.00 0.00 0.00 60 1015.0
20260504020009 48 44 0.0 0.0 0.00 0.00 0.00 59 1015.0
20260504015530 49 44 0.0 0.0 0.00 0.00 0.00 58 1014.9
20260504015048 49 44 0.0 0.0 0.00 0.00 0.00 58 1014.9
20260504014537 50 44 0.0 0.0 0.00 0.00 0.00 55 1015.0
20260504014047 51 44 0.0 0.0 0.00 0.00 0.00 52 1014.9
20260504013505 52 44 0.0 1.0 0.00 0.00 0.00 51 1015.0
20260504013042 52 44 0.0 1.0 0.00 0.00 0.00 50 1014.8
20260504012519 53 44 0.0 1.0 0.00 0.00 0.00 50 1014.7
20260504012042 53 44 0.0 1.0 0.00 0.00 0.00 49 1014.7
20260504011600 53 64 0.0 2.0 0.00 0.00 0.00 48 1014.6
20260504011501 53 64 0.0 3.0 0.00 0.00 0.00 48 1014.7
20260504011041 53 64 0.0 3.0 0.00 0.00 0.00 48 1014.6
20260504010517 53 55 0.0 1.0 0.00 0.00 0.00 48 1014.6
20260504010038 53 56 0.0 1.0 0.00 0.00 0.00 47 1014.6
20260504005553 54 55 0.0 1.0 0.00 0.00 0.00 47 1014.6
20260504005035 54 55 0.0 1.0 0.00 0.00 0.00 47 1014.4
20260504004553 54 54 0.0 1.0 0.00 0.00 0.00 46 1014.4
20260504004022 55 55 0.0 1.0 0.00 0.00 0.00 46 1014.3
20260504003559 55 51 0.0 1.0 0.00 0.00 0.00 45 1014.3
20260504003501 55 49 0.0 1.0 0.00 0.00 0.00 45 1014.3
20260504003023 55 49 0.0 2.0 0.00 0.00 0.00 44 1014.2
20260504002605 56 49 0.0 2.0 0.00 0.00 0.00 44 1014.1
20260504002501 56 50 0.0 3.0 0.00 0.00 0.00 43 1014.1
20260504002041 56 44 0.0 5.0 0.00 0.00 0.00 43 1014.0
20260504001602 56 54 2.0 6.0 0.00 0.00 0.00 42 1014.1
20260504001502 56 40 2.0 6.0 0.00 0.00 0.00 42 1014.0
20260504001024 57 65 2.0 6.0 0.00 0.00 0.00 42 1014.0
20260504000559 57 60 2.0 6.0 0.00 0.00 0.00 42 1013.9
20260504000501 57 75 1.0 6.0 0.00 0.00 0.00 42 1013.9
20260504000046 57 65 1.0 6.0 0.00 0.00 0.00 42 1013.9
20260503235600 57 65 2.0 6.0 0.00 0.00 0.00 41 1013.8
20260503235501 57 71 2.0 6.0 0.00 0.00 0.00 41 1013.8
20260503235023 57 84 2.0 7.0 0.00 0.00 0.00 41 1013.8
20260503234559 58 55 2.0 7.0 0.00 0.00 0.00 40 1013.7
20260503234501 58 57 3.0 7.0 0.00 0.00 0.00 40 1013.6
20260503234027 58 68 2.0 8.0 0.00 0.00 0.00 40 1013.7
20260503233548 58 60 2.0 8.0 0.00 0.00 0.00 39 1013.6
20260503233016 58 42 4.0 8.0 0.00 0.00 0.00 38 1013.6
20260503232549 59 49 2.0 10.0 0.00 0.00 0.00 39 1013.7
20260503232009 59 35 3.0 9.0 0.00 0.00 0.00 38 1013.5
20260503231530 59 80 2.0 9.0 0.00 0.00 0.00 38 1013.6
20260503231006 59 77 1.0 10.0 0.00 0.00 0.00 37 1013.5
20260503230529 59 70 4.0 10.0 0.00 0.00 0.00 37 1013.5
20260503230007 60 50 2.0 11.0 0.00 0.00 0.00 37 1013.4
20260503225530 60 53 3.0 11.0 0.00 0.00 0.00 36 1013.4
20260503225007 60 50 5.0 11.0 0.00 0.00 0.00 36 1013.4
20260503224533 60 49 3.0 12.0 0.00 0.00 0.00 36 1013.5
20260503224011 60 48 0.0 16.0 0.00 0.00 0.00 36 1013.5
20260503223533 60 14 4.0 16.0 0.00 0.00 0.00 35 1013.5
20260503223055 61 63 3.0 12.0 0.00 0.00 0.00 35 1013.5
20260503222537 61 141 4.0 12.0 0.00 0.00 0.00 36 1013.5
20260503222055 61 46 5.0 13.0 0.00 0.00 0.00 35 1013.5
20260503221515 61 34 6.0 13.0 0.00 0.00 0.00 35 1013.4
20260503221053 61 64 4.0 10.0 0.00 0.00 0.00 35 1013.4
20260503220511 62 25 1.0 13.0 0.00 0.00 0.00 35 1013.4
20260503220032 61 53 2.0 13.0 0.00 0.00 0.00 35 1013.5
20260503215510 61 16 3.0 16.0 0.00 0.00 0.00 34 1013.3
20260503215031 61 44 2.0 16.0 0.00 0.00 0.00 34 1013.4
20260503214548 61 54 8.0 15.0 0.00 0.00 0.00 34 1013.4
20260503214013 61 56 2.0 17.0 0.00 0.00 0.00 34 1013.2
20260503213547 61 35 3.0 17.0 0.00 0.00 0.00 33 1013.3
20260503213007 61 41 4.0 14.0 0.00 0.00 0.00 33 1013.3
20260503212527 62 123 3.0 9.0 0.00 0.00 0.00 33 1013.2
20260503212004 61 112 1.0 13.0 0.00 0.00 0.00 34 1013.1
20260503211524 61 87 3.0 15.0 0.00 0.00 0.00 34 1013.2
20260503211100 61 18 6.0 15.0 0.00 0.00 0.00 34 1013.3
20260503211002 61 74 8.0 15.0 0.00 0.00 0.00 33 1013.2
20260503210529 61 56 2.0 12.0 0.00 0.00 0.00 35 1013.2
20260503210050 60 12 6.0 13.0 0.00 0.00 0.00 33 1013.2
20260503205527 61 356 7.0 16.0 0.00 0.00 0.00 33 1013.3
20260503205011 61 143 6.0 16.0 0.00 0.00 0.00 34 1013.4
20260503204538 61 14 2.0 11.0 0.00 0.00 0.00 34 1013.4
20260503204053 61 321 3.0 11.0 0.00 0.00 0.00 35 1013.4
20260503203515 60 11 2.0 11.0 0.00 0.00 0.00 35 1013.4
20260503203052 61 228 4.0 11.0 0.00 0.00 0.00 34 1013.6
20260503202515 61 131 2.0 6.0 0.00 0.00 0.00 37 1013.4
20260503202056 60 92 2.0 9.0 0.00 0.00 0.00 37 1013.5
20260503201513 60 346 4.0 9.0 0.00 0.00 0.00 36 1013.5
20260503201039 60 4 2.0 8.0 0.00 0.00 0.00 36 1013.6
20260503200553 59 81 3.0 8.0 0.00 0.00 0.00 36 1013.6
20260503200014 59 88 3.0 18.0 0.00 0.00 0.00 37 1013.7
20260503195535 59 15 6.0 20.0 0.00 0.00 0.00 35 1013.9
20260503195015 59 58 8.0 20.0 0.00 0.00 0.00 36 1013.8
20260503194537 60 193 3.0 13.0 0.00 0.00 0.00 36 1013.9
20260503194016 59 49 2.0 16.0 0.00 0.00 0.00 36 1013.9
20260503193537 59 37 5.0 19.0 0.00 0.00 0.00 37 1014.2
20260503193102 59 146 10.0 19.0 0.00 0.00 0.00 36 1014.1
20260503192541 59 65 3.0 14.0 0.00 0.00 0.00 36 1014.2
20260503192020 59 25 5.0 13.0 0.00 0.00 0.00 35 1014.3
20260503191548 59 29 3.0 11.0 0.00 0.00 0.00 39 1014.2
20260503191015 59 59 2.0 9.0 0.00 0.00 0.00 36 1014.2
20260503190536 59 30 2.0 8.0 0.00 0.00 0.00 38 1014.3
20260503190020 59 139 2.0 11.0 0.00 0.00 0.00 37 1014.3
20260503185548 58 26 3.0 11.0 0.00 0.00 0.00 40 1014.4
20260503185015 57 32 2.0 17.0 0.00 0.00 0.00 37 1014.4
20260503184558 58 150 3.0 14.0 0.00 0.00 0.00 37 1014.3
20260503184011 57 58 7.0 13.0 0.00 0.00 0.00 36 1014.4
20260503183544 58 60 3.0 12.0 0.00 0.00 0.00 38 1014.5
20260503183009 58 60 5.0 17.0 0.00 0.00 0.00 36 1014.6
20260503182546 57 140 6.0 17.0 0.00 0.00 0.00 38 1014.6
20260503182012 57 83 6.0 14.0 0.00 0.00 0.00 37 1014.6
20260503181607 57 112 5.0 11.0 0.00 0.00 0.00 38 1014.7
20260503181013 57 62 5.0 11.0 0.00 0.00 0.00 38 1014.6
20260503180553 56 331 4.0 12.0 0.00 0.00 0.00 38 1014.7
20260503180035 56 156 4.0 14.0 0.00 0.00 0.00 37 1014.7
20260503175557 56 38 3.0 10.0 0.00 0.00 0.00 38 1014.6
20260503175024 57 108 3.0 15.0 0.00 0.00 0.00 41 1014.5
20260503174503 57 134 2.0 12.0 0.00 0.00 0.00 38 1014.6
20260503174043 56 152 3.0 15.0 0.00 0.00 0.00 39 1014.8
20260503173525 56 36 4.0 17.0 0.00 0.00 0.00 39 1014.8
20260503173013 56 37 5.0 17.0 0.00 0.00 0.00 38 1014.8
20260503172535 56 331 3.0 14.0 0.00 0.00 0.00 40 1014.8
20260503172024 55 75 7.0 14.0 0.00 0.00 0.00 38 1014.8
20260503171556 55 218 3.0 10.0 0.00 0.00 0.00 40 1014.8
20260503171039 56 15 2.0 9.0 0.00 0.00 0.00 40 1014.9
20260503170521 56 4 3.0 9.0 0.00 0.00 0.00 38 1014.8